Overview Statistics Trail Chart Weather Telemetry Raw packets
 

This is the latest recevied weather packets stored in our database for station/object EA2MKR. If no packets are shown the sender has not sent any weather packets the latest 10 day(s).

<< 97 98 99 100 101 102 103 >>
Time Temp. Humidity Pressure Rain* Wind** Luminosity Snow
1787904059 17.22° C 55% 956.7 hPa 0 mm - - -
1787903759 17.78° C 55% 956.7 hPa 0 mm - - -
1787903459 17.22° C 56% 956.7 hPa 0 mm - - -
1787903154 16.67° C 58% 956.7 hPa 0 mm - - -
1787902934 16.67° C 57% 956.8 hPa 0 mm - - -
1787902548 16.67° C 59% 956.7 hPa 0 mm - - -
1787902245 16.67° C 59% 956.6 hPa 0 mm - - -
1787901945 16.11° C 60% 956.6 hPa 0 mm - - -
1787901734 15.56° C 62% 956.6 hPa 0 mm - - -
1787901445 15.56° C 63% 956.6 hPa 0 mm - - -
1787901031 15.56° C 63% 956.6 hPa 0 mm - - -
1787900847 15° C 65% 956.6 hPa 0 mm - - -
1787900431 14.44° C 66% 956.5 hPa 0 mm - - -
1787900121 13.89° C 68% 956.4 hPa 0 mm - - -
1787899822 13.33° C 71% 956.3 hPa 0 mm - - -
1787899517 12.78° C 72% 956.3 hPa 0 mm - - -
1787899217 12.22° C 73% 956.3 hPa 0 mm - - -
1787898914 12.22° C 73% 956.3 hPa 0 mm - - -
1787898614 11.67° C 74% 956.3 hPa 0 mm - - -
1787898312 11.67° C 74% 956.3 hPa 0 mm - - -
1787898134 11.67° C 72% 956.1 hPa 0 mm - - -
1787897837 12.22° C 73% 956 hPa 0 mm - - -
1787897420 11.67° C 74% 955.8 hPa 0 mm - - -
1787897110 11.67° C 76% 955.8 hPa 0 mm - - -
1787896812 11.11° C 75% 955.9 hPa 0 mm - - -

* Rain latest hour (hover to see other rain measurements)
** Current wind speed in m/s (hover to see current wind gust speed)